When you browse on this site, cookies collect data to enhance your experience and personalize the content and advertising you see.
Visit our Privacy Policy to learn more. By continuing to use the site, you agree to this use of cookies and data.
  • In Hungary
  • List of Countries
  • For 7 days
  • Water Temperature
  • Satellite Maps
  • Weather Map
  • News
  • Weather Widgets
  • user-avatar
    Login

    Hourly Weather Dorchester

    Today, 21 January, Monday

    Time Temperature Precipitation Wind Pressure Humidity
    00:00 +2°C° 0 mm 1 mps 763 mmHg 93%
    01:00 +2°C° 0 mm 1 mps 763 mmHg 94%
    02:00 +2°C° 0 mm 1 mps 763 mmHg 94%
    03:00 +2°C° 0 mm 1 mps 763 mmHg 95%
    04:00 +1°C° 0 mm 1 mps 763 mmHg 95%
    05:00 +1°C° 0 mm 1 mps 763 mmHg 95%
    06:00 +1°C° 0 mm 1 mps 763 mmHg 96%
    07:00 +1°C° 0 mm 1 mps 763 mmHg 96%
    08:00 +2°C° 0 mm 1 mps 763 mmHg 96%
    09:00 +2°C° 0 mm 1 mps 763 mmHg 96%
    10:00 +3°C° 0 mm 1 mps 762 mmHg 92%
    11:00 +3°C° 0 mm 2 mps 762 mmHg 88%
    12:00 +4°C° 0 mm 2 mps 761 mmHg 84%
    13:00 +3°C° 0 mm 3 mps 761 mmHg 84%
    14:00 +4°C° 0 mm 3 mps 760 mmHg 83%
    15:00 +4°C° 0 mm 4 mps 759 mmHg 83%
    16:00 +3°C° 0 mm 4 mps 758 mmHg 86%
    17:00 +1°C° 0 mm 4 mps 758 mmHg 88%
    18:00 +1°C° 0 mm 4 mps 757 mmHg 91%
    19:00 +1°C° 0 mm 5 mps 756 mmHg 91%
    20:00 +2°C° 0 mm 5 mps 754 mmHg 91%
    21:00 +2°C° 0 mm 6 mps 753 mmHg 90%
    22:00 +3°C° 0.5 mm 6 mps 752 mmHg 90%
    23:00 +3°C° 0.5 mm 7 mps 751 mmHg 90%

    Tomorrow, 22 January, Tuesday

    Time Temperature Precipitation Wind Pressure Humidity
    00:00 +4°C° 0.5 mm 8 mps 750 mmHg 90%
    01:00 +2°C° 0.7 mm 6 mps 749 mmHg 87%
    02:00 +1°C° 0.7 mm 5 mps 748 mmHg 85%
    03:00 0°C° 0.7 mm 4 mps 748 mmHg 82%
    04:00 0°C° 0 mm 4 mps 748 mmHg 83%
    05:00 -1°C° 0 mm 4 mps 748 mmHg 84%
    06:00 -2°C° 0 mm 4 mps 748 mmHg 85%
    07:00 -2°C° 0 mm 4 mps 748 mmHg 85%
    08:00 -1°C° 0 mm 4 mps 748 mmHg 86%
    09:00 -1°C° 0 mm 4 mps 748 mmHg 86%
    10:00 +1°C° 0 mm 3 mps 747 mmHg 81%
    11:00 +2°C° 0 mm 3 mps 747 mmHg 76%
    12:00 +3°C° 0 mm 3 mps 746 mmHg 70%
    13:00 +4°C° 0.7 mm 2 mps 746 mmHg 77%
    14:00 +3°C° 0.7 mm 2 mps 746 mmHg 83%
    15:00 +2°C° 0.7 mm 2 mps 745 mmHg 89%
    16:00 +2°C° 0.4 mm 2 mps 745 mmHg 90%
    17:00 0°C° 0.4 mm 3 mps 745 mmHg 90%
    18:00 0°C° 0.4 mm 3 mps 745 mmHg 91%
    19:00 -1°C° 0 mm 3 mps 745 mmHg 91%
    20:00 -2°C° 0 mm 3 mps 745 mmHg 91%
    21:00 -4°C° 0 mm 3 mps 745 mmHg 91%
    22:00 -4°C° 0 mm 3 mps 745 mmHg 91%
    23:00 -4°C° 0 mm 3 mps 745 mmHg 91%

    Day after tomorrow, 23 January, Wednesday

    Time Temperature Precipitation Wind Pressure Humidity
    00:00 -4°C° 0 mm 3 mps 745 mmHg 91%
    01:00 -4°C° 0 mm 3 mps 746 mmHg 91%
    02:00 -4°C° 0 mm 3 mps 746 mmHg 91%
    03:00 -4°C° 0 mm 3 mps 746 mmHg 90%
    04:00 -4°C° 0 mm 3 mps 747 mmHg 91%
    05:00 -5°C° 0 mm 3 mps 747 mmHg 91%
    06:00 -5°C° 0 mm 3 mps 748 mmHg 91%
    07:00 -4°C° 0 mm 3 mps 748 mmHg 90%
    08:00 -4°C° 0 mm 3 mps 749 mmHg 90%
    09:00 -3°C° 0 mm 2 mps 749 mmHg 89%
    10:00 -2°C° 0 mm 3 mps 750 mmHg 87%
    11:00 -1°C° 0 mm 3 mps 750 mmHg 85%
    12:00 +1°C° 0 mm 3 mps 751 mmHg 82%
    13:00 +1°C° 0 mm 3 mps 751 mmHg 84%
    14:00 +2°C° 0 mm 2 mps 751 mmHg 85%
    15:00 +2°C° 0 mm 2 mps 751 mmHg 87%
    16:00 +1°C° 0 mm 2 mps 752 mmHg 88%
    17:00 -1°C° 0 mm 2 mps 752 mmHg 89%
    18:00 -2°C° 0 mm 2 mps 753 mmHg 90%
    19:00 -2°C° 0 mm 2 mps 754 mmHg 89%
    20:00 -2°C° 0 mm 2 mps 754 mmHg 89%
    21:00 -3°C° 0 mm 2 mps 755 mmHg 88%
    22:00 -3°C° 0 mm 2 mps 755 mmHg 87%
    23:00 -3°C° 0 mm 2 mps 756 mmHg 86%

    24 January, Thursday

    Time Temperature Precipitation Wind Pressure Humidity
    00:00 -1°C° 0 mm 1 mps 756 mmHg 85%
    01:00 -1°C° 0 mm 1 mps 756 mmHg 84%
    02:00 -1°C° 0 mm 1 mps 756 mmHg 84%
    03:00 -1°C° 0 mm 1 mps 757 mmHg 84%
    04:00 -1°C° 0 mm 1 mps 757 mmHg 84%
    05:00 -1°C° 0 mm 1 mps 757 mmHg 84%
    06:00 -1°C° 0 mm 1 mps 758 mmHg 84%
    07:00 0°C° 0 mm 1 mps 758 mmHg 84%
    08:00 0°C° 0 mm 1 mps 758 mmHg 84%
    09:00 0°C° 0 mm 1 mps 758 mmHg 84%
    10:00 -1°C° 0 mm 2 mps 759 mmHg 82%
    11:00 +2°C° 0 mm 2 mps 759 mmHg 81%
    12:00 +2°C° 0 mm 3 mps 759 mmHg 80%
    13:00 +2°C° 0.2 mm 3 mps 758 mmHg 82%
    14:00 +2°C° 0.2 mm 3 mps 758 mmHg 85%
    15:00 +1°C° 0.2 mm 3 mps 758 mmHg 87%
    16:00 +1°C° 0.3 mm 4 mps 757 mmHg 89%
    17:00 +1°C° 0.3 mm 4 mps 757 mmHg 91%
    18:00 +1°C° 0.3 mm 4 mps 757 mmHg 94%
    19:00 +1°C° 0 mm 4 mps 757 mmHg 95%
    20:00 +2°C° 0 mm 3 mps 757 mmHg 96%
    21:00 +3°C° 0 mm 3 mps 757 mmHg 98%
    22:00 +3°C° 0.1 mm 3 mps 757 mmHg 98%
    23:00 +3°C° 0.1 mm 3 mps 757 mmHg 98%

    25 January, Friday

    Time Temperature Precipitation Wind Pressure Humidity
    00:00 +3°C° 0.1 mm 3 mps 757 mmHg 98%
    01:00 +4°C° 0.1 mm 3 mps 757 mmHg 98%
    02:00 +4°C° 0.1 mm 4 mps 757 mmHg 97%
    03:00 +4°C° 0.1 mm 4 mps 757 mmHg 97%
    04:00 +4°C° 0 mm 4 mps 757 mmHg 97%
    05:00 +3°C° 0 mm 4 mps 757 mmHg 97%
    06:00 +3°C° 0 mm 3 mps 757 mmHg 97%
    07:00 +3°C° 0 mm 4 mps 757 mmHg 97%
    08:00 +3°C° 0 mm 4 mps 757 mmHg 97%
    09:00 +3°C° 0 mm 4 mps 757 mmHg 97%
    10:00 +5°C° 0 mm 4 mps 757 mmHg 95%
    11:00 +6°C° 0 mm 5 mps 757 mmHg 92%
    12:00 +8°C° 0 mm 5 mps 757 mmHg 89%
    13:00 +7°C° 0 mm 5 mps 757 mmHg 90%
    14:00 +7°C° 0 mm 5 mps 757 mmHg 90%
    15:00 +7°C° 0 mm 5 mps 756 mmHg 90%
    16:00 +7°C° 0 mm 5 mps 756 mmHg 91%
    17:00 +6°C° 0 mm 4 mps 756 mmHg 92%
    18:00 +5°C° 0 mm 4 mps 756 mmHg 93%
    19:00 +5°C° 0 mm 4 mps 756 mmHg 93%
    20:00 +5°C° 0 mm 4 mps 756 mmHg 94%
    21:00 +4°C° 0 mm 4 mps 756 mmHg 95%
    22:00 +5°C° 0.1 mm 4 mps 755 mmHg 95%
    23:00 +5°C° 0.1 mm 5 mps 755 mmHg 95%

    26 January, Saturday

    Time Temperature Precipitation Wind Pressure Humidity
    00:00 +6°C° 0.1 mm 5 mps 755 mmHg 96%
    01:00 +6°C° 0.7 mm 5 mps 754 mmHg 96%
    02:00 +7°C° 0.7 mm 5 mps 753 mmHg 95%
    03:00 +8°C° 0.7 mm 6 mps 752 mmHg 95%
    04:00 +8°C° 0.2 mm 6 mps 751 mmHg 95%
    05:00 +8°C° 0.2 mm 6 mps 750 mmHg 94%
    06:00 +8°C° 0.2 mm 6 mps 749 mmHg 94%
    07:00 +8°C° 0 mm 6 mps 748 mmHg 93%
    08:00 +8°C° 0 mm 6 mps 747 mmHg 93%
    09:00 +8°C° 0 mm 7 mps 747 mmHg 92%
    10:00 +8°C° 1.1 mm 6 mps 745 mmHg 93%
    11:00 +8°C° 1.1 mm 6 mps 744 mmHg 93%
    12:00 +8°C° 1.1 mm 6 mps 743 mmHg 93%
    13:00 +8°C° 0.4 mm 6 mps 741 mmHg 89%
    14:00 +7°C° 0.4 mm 5 mps 740 mmHg 85%
    15:00 +7°C° 0.4 mm 5 mps 738 mmHg 81%
    16:00 +7°C° 0.2 mm 4 mps 737 mmHg 85%
    17:00 +7°C° 0.2 mm 3 mps 736 mmHg 88%
    18:00 +5°C° 0.2 mm 3 mps 735 mmHg 91%
    19:00 +5°C° 0.2 mm 3 mps 735 mmHg 91%
    20:00 +5°C° 0.2 mm 4 mps 735 mmHg 92%
    21:00 +5°C° 0.2 mm 5 mps 735 mmHg 92%
    22:00 +3°C° 0.3 mm 7 mps 736 mmHg 91%
    23:00 +2°C° 0.3 mm 8 mps 737 mmHg 89%
    Show more